sat.trackr.live / text

‹ back to catalog

HEAD-3A

NORAD 57626 · 2023-121A

PAYLOAD ACTIVE UNKNOWN

§ Identity

Operator
Country
PRC
Launch date
2023-08-14
Launch site
XICLF
Launch vehicle
Mass (kg)
RCS (m²)

External: N2YO · Heavens-Above · Gunter

§ Orbital elements

Epoch: 2026-05-25T03:55:01.977312Z

Period
98.59 min
Inclination
45.0022°
Eccentricity
0.0005799
Mean motion
14.60631298 rev/d
Perigee alt
687.0 km
Apogee alt
695.2 km
Semi-major
7,069.3 km
B*
1.4929e-4
RAAN
64.9218°
Arg perigee
164.8847°
Mean anomaly
195.2185°
Rev number
14,821

§ Raw data

HEAD-3A1 57626U 23121A   26145.16321733  .00000574  00000+0  14929-3 0  99922 57626  45.0022  64.9218 0005799 164.8847 195.2185 14.60631298148216

JSON: /api/v1/satellites/57626 · /tle

For live sub-satellite position, see the globe view (requires WebGL).

§ Visibility from observer

Set your observer location to see the next 7 days of passes ≥ 10°. The values pass through the URL so the page stays shareable.

No JS? Fill the form by hand. The geolocation button needs JavaScript.